Skip Page Navigation
NASA JPL Caltech
NASA Logo - Jet Propulsion Laboratory + View the NASA Portal
+ Center for Near-Earth Object Studies
JPL Home Earth Solar System Stars & Galaxies Technology
JPL Solar System Dynamics
BODIES ORBITS EPHEMERIDES TOOLS PHYSICAL DATA DISCOVERY FAQ SITE MAP
JPL Small-Body Database Browser
Search: [ help ]  
134516 (1999 KM10)
Classification: Main-belt Asteroid          SPK-ID: 2134516
Ephemeris | Orbit Diagram | Orbital Elements | Mission Design | Physical Parameters | Discovery Circumstances ]

[ show orbit diagram ]
Orbital Elements at Epoch 2459000.5 (2020-May-31.0) TDB
Reference: JPL 16 (heliocentric ecliptic J2000)
 Element Value Uncertainty (1-sigma)   Units 
e .1907376413050432 4.0502e-08  
a 2.233218987560001 9.7654e-09 au
q 1.80726006535517 9.1051e-08 au
i 5.108324761374545 4.0588e-06 deg
node 46.580129979369 6.3388e-05 deg
peri 233.1645269896482 6.477e-05 deg
M 79.97174883361414 1.2702e-05 deg
tp 2458729.711954877743
(2019-Sep-03.21195488)
4.289e-05 TDB
period 1218.976671959907
3.34
7.9955e-06
2.189e-08
d
yr
n .2953296878283825 1.9371e-09 deg/d
Q 2.659177909764832 1.1628e-08 au
  Orbit Determination Parameters
   # obs. used (total)      435  
   data-arc span      7296 days (19.98 yr)  
   first obs. used      1999-05-18  
   last obs. used      2019-05-09  
   planetary ephem.      DE431  
   SB-pert. ephem.      SB431-N16  
   condition code      0  
   norm. resid. RMS      .6698  
   source      ORB  
   producer      Otto Matic  
   solution date      2019-May-30 07:11:21  

Additional Information
 Earth MOID = .796575 au 
 Jupiter MOID = 2.48045 au 
 T_jup = 3.611 
[ show covariance matrix ]

Ephemeris | Orbit Diagram | Orbital Elements | Mission Design | Physical Parameters | Discovery Circumstances ]

Physical Parameter Table
Parameter Symbol Value Units Sigma Reference Notes
absolute magnitude H 16.8   n/a MPO475172  

134516 (1999 KM10)          Discovered 1999-May-18 by LINEAR at Socorro
Reference: 20060907/Numbers.arcLast Updated: 2006-09-10

Alternate Designations
 1999 KM10 = 2002 FM36 
Ephemeris | Orbit Diagram | Orbital Elements | Mission Design | Physical Parameters | Discovery Circumstances ]
ABOUT SSD CREDITS/AWARDS PRIVACY/COPYRIGHT GLOSSARY LINKS
FirstGov 2020-Oct-25 22:14 UT
(server date/time)  
NASA Home Page
Site Manager:   Ryan S. Park
Webmaster  Alan B. Chamberlin